Regional Weather Roundup
Issued by NWS Nashville, TN

Home | Current Version | Previous Version | Text Only | Print | Product List | Glossary On
Versions: 1 2 3 4 5 6 7 8 9 10 11 12 13 14 15 16 17 18 19 20 21 22 23 24 25 26 27
000
ASUS44 KOHX 260510
RWROHX
MIDDLE TENNESSEE HOURLY WEATHER ROUNDUP
NATIONAL WEATHER SERVICE NASHVILLE TN
1200 AM CDT TUE SEP 26 2017

NOTE: "FAIR" INDICATES FEW OR NO CLOUDS BELOW 12,000 FEET WITH
NO SIGNIFICANT WEATHER AND/OR OBSTRUCTIONS TO VISIBILITY.

* THESE REPORTS ARE NOT UNDER NWS QUALITY CONTROL AND MAY NOT
  REPORT WEATHER SUCH AS PRECIPITATION AND FOG.


TNZ005>011-023>034-057-059-062>066-078-080-260600
...NORTHERN MIDDLE TENNESSEE...

CITY           SKY/WX    TMP DP  RH WIND       PRES   REMARKS
CLARKSVILLE    CLEAR     69  65  86 CALM      29.97S
CROSSVILLE     CLEAR     62  61  96 CALM      30.04S
GALLATIN       CLEAR     68  64  88 CALM      29.99S
DICKSON        CLEAR     69  66  90 CALM      29.98R
LEBANON        CLEAR     66  64  93 CALM      29.96S
NASHVILLE      CLEAR     70  67  90 CALM      29.97S
PORTLAND       CLEAR     66  66 100 CALM      29.97S
SMYRNA           N/A    N/A N/A N/A MISG        N/A
SPARTA         CLEAR     61  59  94 CALM      29.99S FOG
SPRINGFIELD    CLEAR     68  66  94 CALM      29.96S FOG
WEST NASHVILLE CLEAR     70  68  94 CALM      29.95S
$$
TNZ056-058-060-061-075>077-079-093>097-260600
...SOUTHERN MIDDLE TENNESSEE...

CITY           SKY/WX    TMP DP  RH WIND       PRES   REMARKS
COLUMBIA       CLEAR     68 N/A N/A CALM      29.95S
FAYETTEVILLE   CLEAR     68  66  94 CALM      29.98S
MCMINNVILLE    MOCLDY    64  64 100 CALM      29.99S VSB 1
MURFREESBORO   CLEAR     70  66  86 CALM      29.96S
PULASKI        PTCLDY    66  66 100 CALM      29.97S
SHELBYVILLE    CLEAR     66  66 100 CALM      29.97S
TULLAHOMA      CLEAR     66  63  88 CALM      30.00S
WINCHESTER     CLEAR     64  64 100 CALM      29.99S
$$


...KEY TO REMARKS...
VSB - VISIBILITY IN MILES
WCI - WIND CHILL INDEX
HX  - HEAT INDEX





USA.gov is the U.S. government's official web portal to all federal, state and local government web resources and services.